Mayo, Yukon Territory

10:50 PM PDT on October 17, 2017 (GMT -0700)
Mayo

Weather History for CYMA - December, 2012

Change the Weather History Date:

Tuesday, December 4, 2012

  Actual Average Record
Temperature  
Mean Temperature -25 °F -  
Max Temperature -18 °F -2 °F 41 °F (1997)
Min Temperature -32 °F -20 °F -38 °F (2001)
Degree Days  
Heating Degree Days 90    
Moisture  
Dew Point -31 °F    
Average Humidity 75    
Maximum Humidity 91    
Minimum Humidity 56    
Precipitation  
Precipitation 0.00 in 0.03 in - ()
Sea Level Pressure  
Sea Level Pressure 29.97 in    
Wind  
Wind Speed 0 mph ()    
Max Wind Speed 0 mph    
Max Gust Speed -    
Visibility 13.2 miles    
Events Snow    
Averages and records for this station are not official NWS values.
T = Trace of Precipitation, MM = Missing Value Source: Averaged Metar Reports

Daily Weather History Graph

Daily Weather History Graph

Search for Another Location

Airport or City:

Trip Planner

Search our weather history database for the weather conditions in past years. The results will help you decide how hot, cold, wet, or windy it might be!

Date:

Astronomy

Dec. 04, 2012 Rise Set
Actual Time 10:24 AM PST 3:23 PM PST
Civil Twilight 9:14 AM PST 4:33 PM PST
Nautical Twilight 8:09 AM PST 5:38 PM PST
Astronomical Twilight 7:11 AM PST 6:36 PM PST
Moon 10:56 PM PST (12/4) 12:53 PM PST (12/4)
Length of Visible Light 7h 19m
Length of Day
4h 59m
Waning Gibbous, 68% of the Moon is Illuminated
Dec 4
Waning Gibbous
Dec 6
Last Quarter
Dec 13
New
Dec 19
First Quarter
Dec 28
Full

Hourly Weather History & Observations

Time (PST) Temp. Dew Point Humidity Pressure Visibility Wind Dir Wind Speed Gust Speed Precip Events Conditions
12:00 AM -32.8 °F -34.6 °F 91% 30.17 in 20.0 mi Calm Calm - N/A Snow Light Snow
1:00 AM -31.0 °F -38.2 °F 68% 30.14 in 20.0 mi Calm Calm - N/A Snow Light Snow
2:00 AM -32.8 °F -43.6 °F 56% 30.14 in 20.0 mi Calm Calm - N/A Snow Light Snow
3:00 AM -29.2 °F -36.4 °F 68% 30.13 in 20.0 mi Calm Calm - N/A Snow Light Snow
4:00 AM -29.2 °F -36.4 °F 68% 30.09 in 20.0 mi Calm Calm - N/A Snow Light Snow
5:00 AM -29.2 °F -36.4 °F 68% 30.07 in 20.0 mi Calm Calm - N/A Snow Light Snow
6:00 AM -29.2 °F -32.8 °F 83% 30.05 in 20.0 mi Calm Calm - N/A Snow Light Snow
7:00 AM -27.4 °F -32.8 °F 75% 30.03 in 20.0 mi Calm Calm - N/A Snow Light Snow
8:00 AM -27.4 °F -32.8 °F 75% 30.02 in 20.0 mi Calm Calm - N/A Snow Light Snow
9:00 AM -27.4 °F -32.8 °F 75% 30.01 in 20.0 mi Calm Calm - N/A Snow Light Snow
10:00 AM -27.4 °F -32.8 °F 75% 29.99 in 20.0 mi Calm Calm - N/A   Mostly Cloudy
11:00 AM -25.6 °F -31.0 °F 76% 29.97 in 20.0 mi Calm Calm - N/A   Mostly Cloudy
12:00 PM -25.6 °F -31.0 °F 76% 29.95 in 20.0 mi Calm Calm - N/A   Mostly Cloudy
1:00 PM -25.6 °F -31.0 °F 76% 29.93 in 20.0 mi Calm Calm - N/A   Mostly Cloudy
2:00 PM -23.8 °F -29.2 °F 76% 29.91 in 10.0 mi Calm Calm - N/A Snow Light Snow
3:00 PM -23.8 °F -29.2 °F 76% 29.89 in 5.0 mi Calm Calm - N/A Snow Light Snow
4:00 PM -22.0 °F -29.2 °F 69% 29.88 in 5.0 mi Calm Calm - N/A Snow Light Snow
5:00 PM -22.0 °F -27.4 °F 76% 29.87 in 5.0 mi Calm Calm - N/A Snow Light Snow
6:00 PM -22.0 °F -27.4 °F 76% 29.87 in 4.0 mi Calm Calm - N/A Snow Light Snow
6:30 PM - - N/A% - 1.5 mi Calm Calm - N/A   Unknown
7:00 PM -20.2 °F -25.6 °F 76% 29.84 in 1.5 mi Calm Calm - N/A Snow Light Snow
8:00 PM -20.2 °F -25.6 °F 76% 29.85 in 4.0 mi Calm Calm - N/A Snow Light Snow
9:00 PM -20.2 °F -25.6 °F 76% 29.85 in 5.0 mi Calm Calm - N/A Snow Light Snow
10:00 PM -18.4 °F -23.8 °F 76% 29.85 in 5.0 mi Calm Calm - N/A Snow Light Snow
11:00 PM -18.4 °F -22.0 °F 84% 29.86 in 4.0 mi Calm Calm - N/A Snow Light Snow